Location: Newark
(50.0306°N, 2.3272°E)
Time: 14:52:04
(UTC+00:00)

Tiros 1 - Visible Passes

Search period start: 05 December 2019 00:00
Search period end: 15 December 2019 00:00
Orbit: 630 x 664 km, 48.4° (Epoch: 04 December)

Date Brightness Start Highest point End Pass type
(mag) Time Alt. Az. Time Alt. Az. Time Alt. Az.
07 Dec 10.3 06:10:22 10° SSE 06:12:17 12° SE 06:14:11 10° ESE visible
08 Dec 9.7 06:34:10 10° SSW 06:37:50 23° SE 06:41:30 10° E visible
09 Dec 10.2 05:20:45 10° SSE 05:22:18 11° SE 05:23:51 10° ESE visible
10 Dec 9.5 05:44:16 10° SSW 05:47:51 22° SE 05:51:25 10° E visible
11 Dec 10.1 04:31:18 10° SSE 04:32:20 11° SE 04:33:21 10° ESE visible
11 Dec 8.6 06:09:16 10° SW 06:13:34 36° SSE 06:17:50 10° E visible
12 Dec 9.4 04:54:38 11° S 04:57:51 21° SE 05:01:19 10° E visible
12 Dec 7.9 06:34:50 10° WSW 06:39:25 53° SSE 06:43:58 10° E visible
13 Dec 8.6 05:20:24 16° SSW 05:23:33 34° SSE 05:27:47 10° E visible
13 Dec 7.5 07:00:42 10° WSW 07:05:23 69° S 07:10:02 10° E visible
14 Dec 9.4 04:08:13 19° SE 04:08:13 19° SE 04:11:13 10° E visible
14 Dec 7.8 05:45:55 17° SW 05:49:24 52° SSE 05:53:57 10° E visible
